Time,TemperatureF,DewpointF,PressureIn,WindDirection,WindDirectionDegrees,WindSpeedMPH,WindSpeedGustMPH,Humidity,HourlyPrecipIn,Conditions,Clouds,dailyrainin,SolarRadiationWatts/m^2,SoftwareType,DateUTC
2013-01-04 00:00:00,44.6,38.5,30.31,NNW,338,0.0,3.0,79,0.00,,,0.00,0.00,VWS V14.00,2013-01-04 06:00:00,
2013-01-04 00:15:00,44.1,38.3,30.31,North,0,1.0,6.0,80,0.00,,,0.00,0.00,VWS V14.00,2013-01-04 06:15:00,
2013-01-04 00:30:00,43.8,38.4,30.30,North,0,2.0,6.0,81,0.00,,,0.00,0.00,VWS V14.00,2013-01-04 06:30:00,
2013-01-04 00:45:00,43.7,38.0,30.30,North,0,3.0,9.0,80,0.00,,,0.00,0.00,VWS V14.00,2013-01-04 06:45:00,
2013-01-04 01:00:00,43.5,38.1,30.31,NNW,338,2.0,5.0,81,0.00,,,0.00,0.00,VWS V14.00,2013-01-04 07:00:00,
2013-01-04 01:15:00,44.0,38.9,30.31,NNW,338,1.0,5.0,82,0.00,,,0.00,0.00,VWS V14.00,2013-01-04 07:15:00,
2013-01-04 01:30:00,44.9,39.1,30.31,North,0,1.0,5.0,80,0.00,,,0.00,0.00,VWS V14.00,2013-01-04 07:30:00,
2013-01-04 01:45:00,45.6,39.5,30.31,North,0,2.0,7.0,79,0.00,,,0.00,0.00,VWS V14.00,2013-01-04 07:45:00,
2013-01-04 02:00:00,46.0,39.2,30.31,North,0,4.0,9.0,77,0.00,,,0.00,0.00,VWS V14.00,2013-01-04 08:00:00,
2013-01-04 02:15:00,46.1,39.3,30.32,North,0,3.0,9.0,77,0.00,,,0.00,0.00,VWS V14.00,2013-01-04 08:15:00,
2013-01-04 02:30:00,46.2,39.4,30.32,North,0,3.0,7.0,77,0.00,,,0.00,0.00,VWS V14.00,2013-01-04 08:30:00,
2013-01-04 02:45:00,46.2,39.4,30.31,North,0,3.0,8.0,77,0.00,,,0.00,0.00,VWS V14.00,2013-01-04 08:45:00,
2013-01-04 03:15:00,46.3,39.8,30.33,North,355,0.0,5.0,78,0.00,,,0.00,0.00,VWS V14.00,2013-01-04 09:15:00,
2013-01-04 03:30:00,46.4,39.9,30.33,North,0,2.0,6.0,78,0.00,,,0.00,0.00,VWS V14.00,2013-01-04 09:30:00,
2013-01-04 03:45:00,46.6,39.8,30.32,North,0,3.0,5.0,77,0.00,,,0.00,0.00,VWS V14.00,2013-01-04 09:45:00,
2013-01-04 04:00:00,46.7,39.9,30.33,North,0,2.0,6.0,77,0.00,,,0.00,0.00,VWS V14.00,2013-01-04 10:00:00,
2013-01-04 04:15:00,46.8,40.0,30.33,North,0,4.0,10.0,77,0.00,,,0.00,0.00,VWS V14.00,2013-01-04 10:15:00,
2013-01-04 04:30:00,46.9,40.1,30.34,North,0,3.0,7.0,77,0.00,,,0.00,0.00,VWS V14.00,2013-01-04 10:30:00,
2013-01-04 04:45:00,47.0,39.8,30.36,NNW,338,2.0,7.0,76,0.00,,,0.00,0.00,VWS V14.00,2013-01-04 10:45:00,
2013-01-04 05:00:00,47.2,39.7,30.35,North,0,3.0,7.0,75,0.00,,,0.00,0.00,VWS V14.00,2013-01-04 11:00:00,
2013-01-04 05:15:00,47.4,39.5,30.35,North,0,4.0,11.0,74,0.00,,,0.00,0.00,VWS V14.00,2013-01-04 11:15:00,
2013-01-04 05:30:00,47.6,39.7,30.35,North,0,4.0,10.0,74,0.00,,,0.00,0.00,VWS V14.00,2013-01-04 11:30:00,
2013-01-04 05:45:00,47.5,40.0,30.36,North,0,3.0,7.0,75,0.00,,,0.00,0.00,VWS V14.00,2013-01-04 11:45:00,
2013-01-04 06:00:00,47.4,39.9,30.36,North,0,4.0,11.0,75,0.00,,,0.00,0.00,VWS V14.00,2013-01-04 12:00:00,
2013-01-04 06:15:00,47.3,39.8,30.35,North,0,5.0,12.0,75,0.00,,,0.00,0.00,VWS V14.00,2013-01-04 12:15:00,
2013-01-04 06:30:00,47.2,39.7,30.36,North,0,5.0,13.0,75,0.00,,,0.00,0.00,VWS V14.00,2013-01-04 12:30:00,
2013-01-04 06:45:00,47.2,39.7,30.36,North,0,6.0,14.0,75,0.00,,,0.00,0.00,VWS V14.00,2013-01-04 12:45:00,
2013-01-04 07:00:00,47.4,39.5,30.36,North,0,7.0,17.0,74,0.00,,,0.00,0.00,VWS V14.00,2013-01-04 13:00:00,
2013-01-04 07:15:00,47.4,39.5,30.37,North,0,7.0,13.0,74,0.00,,,0.00,0.00,VWS V14.00,2013-01-04 13:15:00,
2013-01-04 07:30:00,47.5,40.0,30.38,North,0,6.0,15.0,75,0.00,,,0.00,0.00,VWS V14.00,2013-01-04 13:30:00,
2013-01-04 07:45:00,47.6,40.4,30.38,North,0,7.0,14.0,76,0.00,,,0.00,8.00,VWS V14.00,2013-01-04 13:45:00,
2013-01-04 08:00:00,47.4,40.6,30.39,North,0,6.0,12.0,77,0.00,,,0.00,19.00,VWS V14.00,2013-01-04 14:00:00,
2013-01-04 08:15:00,47.4,40.6,30.39,North,0,6.0,16.0,77,0.00,,,0.00,25.00,VWS V14.00,2013-01-04 14:15:00,
2013-01-04 08:30:00,47.4,40.6,30.39,North,0,5.0,13.0,77,0.00,,,0.00,23.00,VWS V14.00,2013-01-04 14:30:00,
2013-01-04 08:45:00,47.5,40.7,30.40,North,0,7.0,16.0,77,0.00,,,0.00,47.00,VWS V14.00,2013-01-04 14:45:00,
2013-01-04 09:00:00,47.7,40.5,30.40,North,0,5.0,12.0,76,0.00,,,0.00,48.00,VWS V14.00,2013-01-04 15:00:00,
2013-01-04 09:15:00,48.1,40.6,30.41,North,0,7.0,17.0,75,0.00,,,0.00,85.00,VWS V14.00,2013-01-04 15:15:00,
2013-01-04 09:30:00,47.9,40.4,30.42,North,0,7.0,16.0,75,0.00,,,0.00,60.00,VWS V14.00,2013-01-04 15:30:00,
2013-01-04 09:45:00,48.1,40.6,30.42,North,0,6.0,14.0,75,0.00,,,0.00,69.00,VWS V14.00,2013-01-04 15:45:00,
2013-01-04 10:00:00,48.4,40.5,30.41,North,0,6.0,12.0,74,0.00,,,0.00,113.00,VWS V14.00,2013-01-04 16:00:00,
2013-01-04 10:15:00,48.8,40.9,30.41,North,0,6.0,16.0,74,0.00,,,0.00,134.00,VWS V14.00,2013-01-04 16:15:00,
2013-01-04 10:30:00,48.8,40.5,30.41,North,0,6.0,14.0,73,0.00,,,0.00,120.00,VWS V14.00,2013-01-04 16:30:00,
2013-01-04 10:45:00,48.7,40.5,30.41,North,0,7.0,15.0,73,0.00,,,0.00,109.00,VWS V14.00,2013-01-04 16:45:00,
2013-01-04 11:00:00,48.8,40.5,30.41,North,0,7.0,15.0,73,0.00,,,0.00,125.00,VWS V14.00,2013-01-04 17:00:00,
2013-01-04 11:15:00,49.0,40.4,30.39,North,0,8.0,16.0,72,0.00,,,0.00,139.00,VWS V14.00,2013-01-04 17:15:00,
2013-01-04 11:30:00,49.5,40.1,30.39,North,0,8.0,19.0,70,0.00,,,0.00,164.00,VWS V14.00,2013-01-04 17:30:00,
2013-01-04 11:45:00,49.4,39.7,30.39,North,0,8.0,21.0,69,0.00,,,0.00,133.00,VWS V14.00,2013-01-04 17:45:00,
2013-01-04 12:00:00,49.5,40.1,30.37,North,0,8.0,17.0,70,0.00,,,0.00,170.00,VWS V14.00,2013-01-04 18:00:00,
2013-01-04 12:15:00,50.2,40.4,30.36,North,0,6.0,14.0,69,0.00,,,0.00,189.00,VWS V14.00,2013-01-04 18:15:00,
2013-01-04 12:30:00,50.1,40.0,30.35,North,0,7.0,14.0,68,0.00,,,0.00,167.00,VWS V14.00,2013-01-04 18:30:00,
2013-01-04 12:45:00,50.1,39.6,30.35,North,0,7.0,13.0,67,0.00,,,0.00,155.00,VWS V14.00,2013-01-04 18:45:00,
2013-01-04 13:00:00,50.5,39.6,30.33,North,0,6.0,15.0,66,0.00,,,0.00,166.00,VWS V14.00,2013-01-04 19:00:00,
2013-01-04 13:15:00,50.9,39.2,30.32,NNE,22,5.0,13.0,64,0.00,,,0.00,192.00,VWS V14.00,2013-01-04 19:15:00,
2013-01-04 13:30:00,50.8,39.1,30.31,NNE,22,6.0,13.0,64,0.00,,,0.00,174.00,VWS V14.00,2013-01-04 19:30:00,
2013-01-04 13:45:00,50.7,38.2,30.31,NNE,22,6.0,14.0,62,0.00,,,0.00,145.00,VWS V14.00,2013-01-04 19:45:00,
2013-01-04 14:00:00,50.8,39.1,30.31,NNE,22,5.0,13.0,64,0.00,,,0.00,119.00,VWS V14.00,2013-01-04 20:00:00,
2013-01-04 14:15:00,50.6,38.1,30.31,NE,45,5.0,13.0,62,0.00,,,0.00,95.00,VWS V14.00,2013-01-04 20:15:00,
2013-01-04 14:30:00,50.8,38.3,30.31,NNE,22,5.0,12.0,62,0.00,,,0.00,97.00,VWS V14.00,2013-01-04 20:30:00,
2013-01-04 14:48:00,51.0,39.3,30.30,North,0,5.0,13.0,64,0.00,,,0.00,101.00,VWS V14.00,2013-01-04 20:48:00,
2013-01-04 15:00:00,51.0,38.5,30.30,North,5,6.0,13.0,62,0.00,,,0.00,90.00,VWS V14.00,2013-01-04 21:00:00,
2013-01-04 15:15:00,51.2,38.6,30.31,North,0,4.0,11.0,62,0.00,,,0.00,84.00,VWS V14.00,2013-01-04 21:15:00,
2013-01-04 15:30:00,50.9,38.4,30.30,North,0,5.0,12.0,62,0.00,,,0.00,79.00,VWS V14.00,2013-01-04 21:30:00,
2013-01-04 15:45:00,50.9,38.4,30.30,North,0,5.0,11.0,62,0.00,,,0.00,78.00,VWS V14.00,2013-01-04 21:45:00,
2013-01-04 16:00:00,50.8,39.1,30.30,North,0,4.0,12.0,64,0.00,,,0.00,87.00,VWS V14.00,2013-01-04 22:00:00,
2013-01-04 16:15:00,51.0,38.9,30.30,North,0,3.0,12.0,63,0.00,,,0.00,79.00,VWS V14.00,2013-01-04 22:15:00,
2013-01-04 16:30:00,50.8,39.1,30.30,NNE,22,3.0,11.0,64,0.00,,,0.00,42.00,VWS V14.00,2013-01-04 22:30:00,
2013-01-04 16:45:00,50.5,40.0,30.31,North,0,3.0,9.0,67,0.00,,,0.00,35.00,VWS V14.00,2013-01-04 22:45:00,
2013-01-04 17:00:00,50.1,40.0,30.30,North,0,4.0,10.0,68,0.00,,,0.00,22.00,VWS V14.00,2013-01-04 23:00:00,
2013-01-04 17:15:00,49.9,39.8,30.30,North,0,4.0,11.0,68,0.00,,,0.00,18.00,VWS V14.00,2013-01-04 23:15:00,
2013-01-04 17:30:00,49.8,39.7,30.30,North,0,5.0,13.0,68,0.00,,,0.00,9.00,VWS V14.00,2013-01-04 23:30:00,
2013-01-04 17:45:00,49.6,39.5,30.31,North,0,3.0,9.0,68,0.00,,,0.00,0.00,VWS V14.00,2013-01-04 23:45:00,
2013-01-04 18:00:00,49.3,39.2,30.31,North,0,4.0,9.0,68,0.00,,,0.00,0.00,VWS V14.00,2013-01-05 00:00:00,
2013-01-04 18:15:00,49.2,39.1,30.31,North,0,3.0,7.0,68,0.00,,,0.00,0.00,VWS V14.00,2013-01-05 00:15:00,
2013-01-04 18:30:00,49.1,39.0,30.32,North,0,3.0,9.0,68,0.00,,,0.00,0.00,VWS V14.00,2013-01-05 00:30:00,
2013-01-04 18:45:00,49.0,38.5,30.32,North,0,4.0,10.0,67,0.00,,,0.00,0.00,VWS V14.00,2013-01-05 00:45:00,
2013-01-04 19:00:00,49.0,38.9,30.33,North,0,3.0,11.0,68,0.00,,,0.00,0.00,VWS V14.00,2013-01-05 01:00:00,
2013-01-04 19:15:00,49.0,39.3,30.32,North,0,3.0,9.0,69,0.00,,,0.00,0.00,VWS V14.00,2013-01-05 01:15:00,
2013-01-04 19:30:00,48.9,39.6,30.31,North,0,4.0,13.0,70,0.00,,,0.00,0.00,VWS V14.00,2013-01-05 01:30:00,
2013-01-04 19:45:00,49.0,39.7,30.32,North,0,4.0,13.0,70,0.00,,,0.00,0.00,VWS V14.00,2013-01-05 01:45:00,
2013-01-04 20:00:00,49.0,39.3,30.33,North,0,4.0,11.0,69,0.00,,,0.00,0.00,VWS V14.00,2013-01-05 02:00:00,
2013-01-04 20:15:00,48.9,39.6,30.32,North,0,3.0,10.0,70,0.00,,,0.00,0.00,VWS V14.00,2013-01-05 02:15:00,
2013-01-04 20:30:00,49.0,39.3,30.32,North,0,4.0,11.0,69,0.00,,,0.00,0.00,VWS V14.00,2013-01-05 02:30:00,
2013-01-04 20:45:00,48.8,39.5,30.32,North,0,3.0,7.0,70,0.00,,,0.00,0.00,VWS V14.00,2013-01-05 02:45:00,
2013-01-04 21:00:00,48.7,40.1,30.32,NW,315,1.0,5.0,72,0.00,,,0.00,0.00,VWS V14.00,2013-01-05 03:00:00,
2013-01-04 21:15:00,48.6,40.3,30.33,North,0,2.0,6.0,73,0.00,,,0.00,0.00,VWS V14.00,2013-01-05 03:15:00,
2013-01-04 21:30:00,48.6,40.7,30.33,North,0,2.0,6.0,74,0.00,,,0.00,0.00,VWS V14.00,2013-01-05 03:30:00,
2013-01-04 21:45:00,48.5,40.6,30.32,North,0,2.0,5.0,74,0.00,,,0.00,0.00,VWS V14.00,2013-01-05 03:45:00,
2013-01-04 22:00:00,48.4,40.5,30.32,North,0,3.0,6.0,74,0.00,,,0.00,0.00,VWS V14.00,2013-01-05 04:00:00,
2013-01-04 22:15:00,48.3,40.4,30.33,North,0,2.0,6.0,74,0.00,,,0.00,0.00,VWS V14.00,2013-01-05 04:15:00,
2013-01-04 22:30:00,48.3,40.4,30.32,North,0,2.0,8.0,74,0.00,,,0.00,0.00,VWS V14.00,2013-01-05 04:30:00,
2013-01-04 22:45:00,48.1,40.2,30.32,North,0,2.0,9.0,74,0.00,,,0.00,0.00,VWS V14.00,2013-01-05 04:45:00,
2013-01-04 23:00:00,47.9,39.3,30.33,NNW,338,3.0,9.0,72,0.00,,,0.00,0.00,VWS V14.00,2013-01-05 05:00:00,
2013-01-04 23:15:00,47.9,39.7,30.32,North,0,3.0,8.0,73,0.00,,,0.00,0.00,VWS V14.00,2013-01-05 05:15:00,
2013-01-04 23:30:00,47.9,39.3,30.32,North,0,2.0,9.0,72,0.00,,,0.00,0.00,VWS V14.00,2013-01-05 05:30:00,
2013-01-04 23:45:00,47.8,38.9,30.32,North,0,3.0,9.0,71,0.00,,,0.00,0.00,VWS V14.00,2013-01-05 05:45:00,